map of FMY home
FMY - Airport
Location
City:  Fort Myers, Florida, United States
Name:Page Field
ICAO:KFMY
IATA:FMY
FAA LID:FMY

Details
Type:Airport (Airfield)
Use:Public/Civil
Latitude:2635'12"N (26.586611)
Longitude:8151'48"W (-81.863249)
Datum:WGS 1984
Elevation:17 ft (5 m)
Variation:5.85W (WMM2015v2 magnetic declination)
-0.08 annual change
Runways:2
Longest:6406 × 150 ft (1953 × 45.5 m), paved

Time
Time Zone:UTC-5 (DST-4)
Local Time:

Weather
METAR:KFMY 041408Z 08004KT 9SM BKN008 OVC020 20/18 A3006 RMK AO2 T02000178
TAF:KFMY 041122Z 0412/0512 VRB04KT 6SM BR SCT007 OVC025
TEMPO 0412/0414 1SM BR OVC005
FM041500 05005KT P6SM BKN020
FM041800 30004KT P6SM FEW030 BKN250
FM050200 VRB03KT P6SM FEW050 SCT200

Related Locations
Nearby:
Farthest:USL: 11500 mi / 18508 km
Useless Loop, WA, AU

Find:

   beyond  
but within

Other Information
Maps:
Delays:
NOTAMs:
Links:
Sources:

  
  • flag of United States
  • flag of Florida
  

Airport Diagram

Airport diagram for FMY

Airport diagram PDF from FAA

Sectional Chart

Flight Planning
at skyvector.com

Satellite Image

Google Maps Satellite view

 

Copyright © 2004-2019 Karl L. Swartz. All rights reserved.
The Great Circle Mapper name and logo are trademarks of the Great Circle Mapper.
All other trademarks mentioned herein belong to their respective owners.
Please see credits for attibutions and further copyright information.

  Follow gcmap on Facebook Follow gcmap on Twitter GCmap on LinkedIn

hCard Microformat

Geo Microformat